TimeMDT,TemperatureF,Dew PointF,Humidity,Sea Level PressureIn,VisibilityMPH,Wind Direction,Wind SpeedMPH,Gust SpeedMPH,PrecipitationIn,Events,Conditions,WindDirDegrees,DateUTC
12:00 AM,37,32,77,30.12,,NE,17.9,,,,,50,2013-07-15 06:00:00
12:00 AM,37.4,31.6,80,30.12,-9999.0,NE,9.2,-,N/A,,Unknown,50,2013-07-15 06:00:00
1:00 AM,36.7,31.8,83,30.12,-9999.0,ENE,9.2,-,N/A,,Unknown,60,2013-07-15 07:00:00
2:00 AM,36.5,31.6,83,30.13,-9999.0,ENE,8.1,-,N/A,,Unknown,60,2013-07-15 08:00:00
3:00 AM,36.9,31.8,82,30.13,-9999.0,ENE,9.2,-,N/A,,Unknown,60,2013-07-15 09:00:00
4:00 AM,36.9,31.1,80,30.13,-9999.0,East,9.2,-,N/A,,Unknown,80,2013-07-15 10:00:00
5:00 AM,37.9,31.3,77,30.13,-9999.0,ENE,9.2,-,N/A,,Unknown,70,2013-07-15 11:00:00
6:00 AM,39,34,76,30.14,,East,8.1,,,,,80,2013-07-15 12:00:00
6:00 AM,38.8,34.0,83,30.14,-9999.0,East,8.1,-,N/A,,Unknown,80,2013-07-15 12:00:00
7:00 AM,39.9,34.0,79,30.14,-9999.0,East,6.9,-,N/A,,Unknown,100,2013-07-15 13:00:00
8:00 AM,40.5,35.1,81,30.14,-9999.0,East,8.1,-,N/A,,Unknown,90,2013-07-15 14:00:00
8:18 AM,29.7,30.9,100,-9999,-9999.0,North,-9999.0,-,N/A,,Unknown,0,2013-07-15 14:18:00
9:00 AM,40.8,35.2,80,30.13,-9999.0,East,10.4,-,N/A,,Unknown,90,2013-07-15 15:00:00
10:00 AM,41.7,35.6,79,30.13,-9999.0,East,10.4,-,N/A,,Unknown,100,2013-07-15 16:00:00
11:00 AM,42.8,36.9,80,30.13,-9999.0,East,9.2,-,N/A,,Unknown,100,2013-07-15 17:00:00
12:23 PM,30.7,30.2,98,-9999,-9999.0,North,-9999.0,-,N/A,,Unknown,0,2013-07-15 18:23:00
3:00 PM,47.8,40.6,76,30.11,-9999.0,East,13.8,-,N/A,,Unknown,90,2013-07-15 21:00:00
4:00 PM,48.2,41.0,76,30.10,-9999.0,East,17.3,-,N/A,,Unknown,80,2013-07-15 22:00:00
4:26 PM,-9999,-9999,N/A,-9999,-9999.0,North,-9999.0,-,N/A,,Unknown,0,2013-07-15 22:26:00
5:00 PM,46.6,41.5,83,30.09,-9999.0,ENE,18.4,-,N/A,,Unknown,70,2013-07-15 23:00:00
7:00 PM,46.2,40.6,81,30.06,-9999.0,East,19.6,-,N/A,,Unknown,80,2013-07-16 01:00:00
8:00 PM,46.9,40.6,79,30.05,-9999.0,East,18.4,-,N/A,,Unknown,80,2013-07-16 02:00:00
9:00 PM,46.4,40.5,80,30.04,-9999.0,East,19.6,-,N/A,,Unknown,80,2013-07-16 03:00:00
10:00 PM,44.4,39.9,84,30.04,-9999.0,East,19.6,-,N/A,,Unknown,80,2013-07-16 04:00:00
11:00 PM,44.1,39.4,84,30.03,-9999.0,East,20.7,-,N/A,,Unknown,80,2013-07-16 05:00:00